VOE2007 LFBI-LFLL

Flight info

Callsign VOE2007
Flight time 0h 43m
Altitude 31000
Route BALAN R66 GUSON DCT LARON DCT VALKU DCT LABAL DCT LESPI
Aircraft A320/M-SDFGHIJ1RWY/LB1

Departure

Time 2026-04-17 10:46
Airport Poitiers-Biard Airport (LFBI)

Arrival

Time 2026-04-17 11:30
Airport Lyon Saint-Exupéry Airport (LFLL)
Time Latitude Longitude Altitude Speed Heading
2026-04-17 10:28 46.58632 0.31037 431 ft 0 kts 255°
2026-04-17 10:36 46.58631 0.31032 431 ft 3 kts 255°
2026-04-17 10:37 46.58621 0.30973 427 ft 8 kts 259°
2026-04-17 10:37 46.58641 0.30892 419 ft 10 kts 303°
2026-04-17 10:37 46.58682 0.30803 429 ft 12 kts 304°
2026-04-17 10:37 46.58728 0.30694 427 ft 13 kts 279°
2026-04-17 10:38 46.58660 0.30605 426 ft 15 kts 212°
2026-04-17 10:38 46.58557 0.30517 423 ft 18 kts 208°
2026-04-17 10:38 46.58443 0.30425 419 ft 20 kts 210°
2026-04-17 10:38 46.58318 0.30319 418 ft 21 kts 210°
2026-04-17 10:39 46.58192 0.30209 422 ft 21 kts 211°
2026-04-17 10:39 46.58076 0.30109 421 ft 12 kts 210°
2026-04-17 10:39 46.58001 0.30077 419 ft 11 kts 176°
2026-04-17 10:39 46.57967 0.30042 417 ft 6 kts 276°
2026-04-17 10:40 46.57989 0.30033 425 ft 3 kts 26°
2026-04-17 10:40 46.57995 0.30039 415 ft 0 kts 31°
2026-04-17 10:45 46.58002 0.30045 422 ft 13 kts 31°
2026-04-17 10:46 46.58331 0.30330 418 ft 92 kts 31°
2026-04-17 10:46 46.59067 0.30961 421 ft 151 kts 31°
2026-04-17 10:46 46.60012 0.31767 934 ft 158 kts 31°
2026-04-17 10:46 46.60981 0.32580 1626 ft 162 kts 30°
2026-04-17 10:47 46.61966 0.33413 2314 ft 169 kts 31°
2026-04-17 10:47 46.63037 0.34339 2750 ft 188 kts 31°
2026-04-17 10:47 46.64194 0.35349 3379 ft 197 kts 30°
2026-04-17 10:47 46.65383 0.36382 4117 ft 201 kts 28°
2026-04-17 10:48 46.66451 0.37738 4790 ft 211 kts 56°
2026-04-17 10:48 46.66860 0.39809 5432 ft 220 kts 90°
2026-04-17 10:48 46.66745 0.42051 5907 ft 235 kts 95°
2026-04-17 10:48 46.66596 0.44550 6258 ft 260 kts 95°
2026-04-17 10:49 46.66433 0.47308 6765 ft 282 kts 95°
2026-04-17 10:49 46.66148 0.50181 7505 ft 289 kts 105°
2026-04-17 10:49 46.65473 0.52956 8363 ft 293 kts 113°
2026-04-17 10:49 46.64707 0.55741 9256 ft 297 kts 113°
2026-04-17 10:50 46.63947 0.58517 10157 ft 301 kts 112°
2026-04-17 10:50 46.63152 0.61425 10617 ft 320 kts 112°
2026-04-17 10:50 46.62299 0.64549 10965 ft 340 kts 112°
2026-04-17 10:50 46.61411 0.67795 11653 ft 348 kts 112°
2026-04-17 10:51 46.60508 0.71090 12406 ft 353 kts 112°
2026-04-17 10:51 46.59603 0.74391 13152 ft 358 kts 112°
2026-04-17 10:51 46.58673 0.77778 13913 ft 363 kts 112°
2026-04-17 10:51 46.57732 0.81202 14574 ft 367 kts 112°
2026-04-17 10:52 46.56777 0.84674 15224 ft 372 kts 112°
2026-04-17 10:52 46.55806 0.88181 15881 ft 376 kts 112°
2026-04-17 10:52 46.54823 0.91723 16516 ft 380 kts 112°
2026-04-17 10:52 46.53828 0.95306 17150 ft 385 kts 112°
2026-04-17 10:53 46.52823 0.98937 17780 ft 389 kts 112°
2026-04-17 10:53 46.51874 1.02598 18388 ft 394 kts 107°
2026-04-17 10:53 46.51309 1.06506 18940 ft 398 kts 97°
2026-04-17 10:53 46.50946 1.10513 19507 ft 401 kts 97°
2026-04-17 10:54 46.50574 1.14570 20078 ft 404 kts 97°
2026-04-17 10:54 46.50195 1.18631 20643 ft 408 kts 97°
2026-04-17 10:54 46.49814 1.22671 21204 ft 411 kts 97°
2026-04-17 10:54 46.49422 1.26823 21754 ft 415 kts 97°
2026-04-17 10:55 46.49027 1.30983 22305 ft 418 kts 97°
2026-04-17 10:55 46.48627 1.35185 22854 ft 421 kts 98°
2026-04-17 10:55 46.48219 1.39429 23394 ft 425 kts 98°
2026-04-17 10:55 46.47810 1.43648 23900 ft 428 kts 98°
2026-04-17 10:56 46.47150 1.47876 24333 ft 431 kts 108°
2026-04-17 10:56 46.46024 1.51916 24757 ft 433 kts 117°
2026-04-17 10:56 46.44680 1.55852 25189 ft 436 kts 117°
2026-04-17 10:56 46.43330 1.59818 25600 ft 438 kts 117°
2026-04-17 10:57 46.41994 1.63752 26005 ft 441 kts 117°
2026-04-17 10:57 46.40632 1.67760 26396 ft 444 kts 117°
2026-04-17 10:57 46.39265 1.71786 26786 ft 447 kts 117°
2026-04-17 10:57 46.37885 1.75847 27172 ft 449 kts 116°
2026-04-17 10:58 46.36500 1.79927 27546 ft 452 kts 116°
2026-04-17 10:58 46.35120 1.83971 27931 ft 454 kts 117°
2026-04-17 10:58 46.33706 1.88098 28283 ft 457 kts 117°
2026-04-17 10:58 46.32283 1.92243 28642 ft 460 kts 116°
2026-04-17 10:59 46.30852 1.96406 28986 ft 463 kts 116°
2026-04-17 10:59 46.29430 2.00539 29321 ft 465 kts 116°
2026-04-17 10:59 46.27980 2.04740 29661 ft 468 kts 116°
2026-04-17 10:59 46.26517 2.08969 29981 ft 470 kts 116°
2026-04-17 11:00 46.25047 2.13209 30300 ft 473 kts 116°
2026-04-17 11:00 46.23569 2.17470 30566 ft 475 kts 116°
2026-04-17 11:00 46.22101 2.21678 30827 ft 477 kts 117°
2026-04-17 11:00 46.20574 2.25943 31074 ft 479 kts 117°
2026-04-17 11:01 46.19014 2.30193 31203 ft 477 kts 118°
2026-04-17 11:01 46.17471 2.34345 31224 ft 460 kts 118°
2026-04-17 11:01 46.15966 2.38371 31221 ft 452 kts 118°
2026-04-17 11:02 46.12996 2.46332 31222 ft 448 kts 118°
2026-04-17 11:02 46.10074 2.54232 31225 ft 447 kts 118°
2026-04-17 11:03 46.07142 2.62166 31223 ft 447 kts 118°
2026-04-17 11:03 46.04213 2.70040 31226 ft 447 kts 118°
2026-04-17 11:04 46.01420 2.78049 31226 ft 446 kts 109°
2026-04-17 11:04 46.00214 2.86688 31217 ft 442 kts 89°
2026-04-17 11:05 46.00596 2.95486 31216 ft 439 kts 83°
2026-04-17 11:05 46.01091 3.04208 31222 ft 440 kts 83°
2026-04-17 11:06 46.01569 3.12993 31222 ft 439 kts 83°
2026-04-17 11:06 46.02032 3.21768 31220 ft 439 kts 83°
2026-04-17 11:07 46.02493 3.30613 31228 ft 451 kts 83°
2026-04-17 11:07 46.03325 3.39616 30818 ft 454 kts 76°
2026-04-17 11:07 46.03965 3.44068 30247 ft 451 kts 76°
2026-04-17 11:08 46.04612 3.48488 29600 ft 448 kts 76°
2026-04-17 11:08 46.05246 3.52807 29028 ft 444 kts 76°
2026-04-17 11:08 46.05879 3.57141 28457 ft 440 kts 76°
2026-04-17 11:08 46.06501 3.61444 27800 ft 433 kts 76°
2026-04-17 11:09 46.07106 3.65673 26859 ft 428 kts 76°
2026-04-17 11:09 46.07691 3.69789 26166 ft 418 kts 77°
2026-04-17 11:09 46.08262 3.73833 25666 ft 407 kts 77°
2026-04-17 11:10 46.09390 3.81806 24570 ft 408 kts 77°
2026-04-17 11:10 46.09956 3.85815 24037 ft 408 kts 77°
2026-04-17 11:10 46.10520 3.89826 23497 ft 407 kts 77°
2026-04-17 11:10 46.10931 3.93842 22995 ft 404 kts 87°
2026-04-17 11:11 46.10802 3.97825 22498 ft 402 kts 99°
2026-04-17 11:11 46.10139 4.01727 22011 ft 400 kts 107°
2026-04-17 11:11 46.09336 4.05558 21526 ft 397 kts 107°
2026-04-17 11:11 46.08541 4.09358 20938 ft 398 kts 107°
2026-04-17 11:12 46.07749 4.13163 20585 ft 392 kts 107°
2026-04-17 11:12 46.06978 4.16895 20163 ft 389 kts 107°
2026-04-17 11:12 46.06220 4.20574 19802 ft 384 kts 107°
2026-04-17 11:12 46.05459 4.24252 19389 ft 381 kts 107°
2026-04-17 11:13 46.04700 4.27902 18951 ft 379 kts 107°
2026-04-17 11:13 46.03943 4.31534 18544 ft 377 kts 107°
2026-04-17 11:13 46.03190 4.35143 18083 ft 374 kts 107°
2026-04-17 11:13 46.02440 4.38723 17639 ft 372 kts 107°
2026-04-17 11:14 46.01703 4.42228 17203 ft 369 kts 107°
2026-04-17 11:14 46.00960 4.45751 16773 ft 367 kts 107°
2026-04-17 11:14 46.00196 4.49246 16367 ft 364 kts 111°
2026-04-17 11:14 45.99065 4.52483 15961 ft 361 kts 122°
2026-04-17 11:15 45.97746 4.55547 15537 ft 359 kts 122°
2026-04-17 11:15 45.96354 4.58511 15148 ft 356 kts 131°
2026-04-17 11:15 45.94575 4.60940 14767 ft 352 kts 145°
2026-04-17 11:15 45.92470 4.62688 14379 ft 348 kts 155°
2026-04-17 11:16 45.90297 4.64208 13973 ft 347 kts 155°
2026-04-17 11:16 45.88129 4.65723 13521 ft 345 kts 155°
2026-04-17 11:16 45.85998 4.67214 13108 ft 343 kts 155°
2026-04-17 11:16 45.83856 4.68708 12672 ft 340 kts 155°
2026-04-17 11:17 45.81724 4.70202 12249 ft 339 kts 155°
2026-04-17 11:17 45.80322 4.71186 12047 ft 335 kts 155°
2026-04-17 11:17 45.77604 4.73091 11880 ft 320 kts 155°
2026-04-17 11:17 45.75630 4.74469 11679 ft 312 kts 155°
2026-04-17 11:18 45.74342 4.75366 11476 ft 309 kts 155°
2026-04-17 11:18 45.72416 4.76710 11153 ft 306 kts 154°
2026-04-17 11:18 45.70502 4.78047 10825 ft 304 kts 154°
2026-04-17 11:18 45.68599 4.79375 10492 ft 302 kts 154°
2026-04-17 11:19 45.66733 4.80676 10163 ft 299 kts 154°
2026-04-17 11:19 45.64867 4.81973 9797 ft 297 kts 154°
2026-04-17 11:19 45.63004 4.83265 9399 ft 296 kts 154°
2026-04-17 11:19 45.61155 4.84548 9023 ft 294 kts 154°
2026-04-17 11:20 45.59330 4.85820 8745 ft 290 kts 154°
2026-04-17 11:20 45.57542 4.87065 8406 ft 288 kts 154°
2026-04-17 11:20 45.55741 4.88308 8051 ft 287 kts 154°
2026-04-17 11:20 45.53936 4.89547 7684 ft 286 kts 154°
2026-04-17 11:21 45.52138 4.90778 7328 ft 286 kts 154°
2026-04-17 11:21 45.50381 4.91976 7097 ft 279 kts 154°
2026-04-17 11:21 45.48731 4.93320 6977 ft 267 kts 144°
2026-04-17 11:21 45.47256 4.94855 6846 ft 257 kts 141°
2026-04-17 11:22 45.45848 4.96347 6726 ft 247 kts 142°
2026-04-17 11:22 45.44505 4.97811 6504 ft 239 kts 132°
2026-04-17 11:22 45.43719 4.99799 6255 ft 229 kts 98°
2026-04-17 11:22 45.43755 5.01982 6004 ft 222 kts 76°
2026-04-17 11:23 45.44089 5.04103 5787 ft 217 kts 73°
2026-04-17 11:23 45.44449 5.06167 5580 ft 212 kts 73°
2026-04-17 11:23 45.44807 5.08190 5387 ft 209 kts 72°
2026-04-17 11:23 45.45389 5.10065 5190 ft 206 kts 52°
2026-04-17 11:24 45.46425 5.11456 5001 ft 204 kts 30°
2026-04-17 11:24 45.47715 5.12148 4883 ft 200 kts
2026-04-17 11:24 45.49106 5.12147 4750 ft 200 kts 356°
2026-04-17 11:24 45.50479 5.11978 4620 ft 196 kts 356°
2026-04-17 11:25 45.51730 5.11824 4563 ft 188 kts 356°
2026-04-17 11:25 45.53000 5.11670 4349 ft 182 kts 356°
2026-04-17 11:25 45.54268 5.11517 4119 ft 184 kts 356°
2026-04-17 11:25 45.55535 5.11364 3890 ft 181 kts 356°
2026-04-17 11:26 45.56810 5.11209 3650 ft 188 kts 355°
2026-04-17 11:26 45.58107 5.11052 3379 ft 182 kts 356°
2026-04-17 11:26 45.59342 5.10901 3150 ft 176 kts 356°
2026-04-17 11:26 45.60551 5.10756 2932 ft 173 kts 355°
2026-04-17 11:27 45.61722 5.10613 2701 ft 166 kts 355°
2026-04-17 11:27 45.62845 5.10479 2474 ft 156 kts 355°
2026-04-17 11:27 45.63886 5.10353 2281 ft 146 kts 355°
2026-04-17 11:27 45.64877 5.10233 2095 ft 144 kts 355°
2026-04-17 11:28 45.65879 5.10112 1899 ft 141 kts 355°
2026-04-17 11:28 45.66851 5.09994 1708 ft 141 kts 354°
2026-04-17 11:28 45.67827 5.09871 1490 ft 142 kts 354°
2026-04-17 11:28 45.68807 5.09752 1320 ft 140 kts 354°
2026-04-17 11:29 45.69779 5.09637 1119 ft 140 kts 354°
2026-04-17 11:29 45.70751 5.09514 934 ft 141 kts 354°
2026-04-17 11:29 45.71703 5.09406 827 ft 127 kts 354°
2026-04-17 11:29 45.72426 5.09320 812 ft 73 kts 355°
2026-04-17 11:30 45.72681 5.09283 806 ft 18 kts 350°
2026-04-17 11:30 45.72810 5.09220 802 ft 22 kts 332°
2026-04-17 11:30 45.72927 5.09114 798 ft 18 kts 326°
2026-04-17 11:30 45.72965 5.08952 792 ft 21 kts 265°
2026-04-17 11:31 45.72956 5.08738 792 ft 23 kts 265°
2026-04-17 11:31 45.72945 5.08563 791 ft 18 kts 265°
2026-04-17 11:31 45.72917 5.08399 790 ft 18 kts 232°
2026-04-17 11:31 45.72808 5.08358 791 ft 16 kts 176°
2026-04-17 11:32 45.72707 5.08371 791 ft 14 kts 175°
2026-04-17 11:32 45.72613 5.08382 793 ft 16 kts 175°
2026-04-17 11:32 45.72497 5.08396 796 ft 16 kts 175°
2026-04-17 11:32 45.72395 5.08409 797 ft 13 kts 174°
2026-04-17 11:33 45.72313 5.08419 799 ft 11 kts 175°
2026-04-17 11:33 45.72247 5.08428 800 ft 9 kts 175°
2026-04-17 11:33 45.72182 5.08434 801 ft 12 kts 176°
2026-04-17 11:33 45.72084 5.08443 803 ft 15 kts 176°
2026-04-17 11:34 45.71972 5.08457 802 ft 17 kts 173°
2026-04-17 11:34 45.71854 5.08476 802 ft 17 kts 174°
2026-04-17 11:34 45.71751 5.08487 802 ft 10 kts 176°
2026-04-17 11:34 45.71688 5.08451 801 ft 11 kts 241°
2026-04-17 11:35 45.71678 5.08324 800 ft 13 kts 264°
2026-04-17 11:35 45.71673 5.08245 801 ft 6 kts 243°
2026-04-17 11:35 45.71640 5.08224 802 ft 4 kts 195°
2026-04-17 11:35 45.71613 5.08214 802 ft 4 kts 194°
2026-04-17 11:36 45.71602 5.08210 802 ft 0 kts 195°